Location: *
(46.3500°N, 10.9000°E)
Time: 00:19:30
(UTC+00:00)

Vanguard 2 - Pass Details

Date: 20 April 2021
Orbit: 552 x 2938 km, 32.9° (Epoch: 12 May)

Event Time Altitude Azimuth Distance (km) Brightness Sun altitude
Rises 14:28:54 0° 258° (WSW) 6,144 13.1 36.6°
Reaches altitude 10° 14:33:50 10° 252° (WSW) 4,782 12.9 35.8°
Maximum altitude 14:44:42 36° 193° (SSW) 2,333 10.8 34.0°
Drops below altitude 10° 14:51:43 10° 130° (SE) 3,065 10.4 32.9°
Sets 14:54:11 0° 121° (ESE) 3,760 10.7 32.5°
